Copper Harbor, MI

1:04 PM EDT on August 23, 2017 (GMT -0400)
Copper Harbor

Weather History for KP59 - May, 2013

Change the Weather History Date:

Saturday, May 25, 2013

  Actual Average Record
Temperature  
Mean Temperature 47 °F -  
Max Temperature 57 °F 56 °F 78 °F (2014)
Min Temperature 39 °F 39 °F 34 °F (2011)
Degree Days  
Heating Degree Days 18    
Moisture  
Dew Point 32 °F    
Average Humidity 56    
Maximum Humidity 70    
Minimum Humidity 36    
Precipitation  
Precipitation 0.00 in - - ()
Sea Level Pressure  
Sea Level Pressure 30.39 in    
Wind  
Wind Speed 4 mph (SSE)    
Max Wind Speed 10 mph    
Max Gust Speed -    
Averages and records for this station are not official NWS values.
T = Trace of Precipitation, MM = Missing Value Source: NWS Daily Summary

Daily Weather History Graph

Daily Weather History Graph

Search for Another Location

Airport or City:

Trip Planner

Search our weather history database for the weather conditions in past years. The results will help you decide how hot, cold, wet, or windy it might be!

Date:

Astronomy

May. 25, 2013 Rise Set
Actual Time 6:03 AM EDT 9:34 PM EDT
Civil Twilight 5:25 AM EDT 10:12 PM EDT
Nautical Twilight 4:35 AM EDT 11:03 PM EDT
Astronomical Twilight 3:27 AM EDT 12:11 AM EDT
Moon 10:20 PM EDT (5/25) 6:31 AM EDT (5/25)
Length of Visible Light 16h 46m
Length of Day
15h 30m
Full, 100% of the Moon is Illuminated
May 25
Full
May 31
Last Quarter
Jun 8
New
Jun 16
First Quarter
Jun 23
Full

Hourly Weather History & Observations

Time (EDT) Temp. Windchill Dew Point Humidity Pressure Visibility Wind Dir Wind Speed Gust Speed Precip Events Conditions
12:51 AM 44.1 °F 39.5 °F 30.0 °F 58% 30.37 in - SW 8.1 mph - N/A   Unknown
1:51 AM 43.0 °F 39.5 °F 30.0 °F 60% 30.37 in - SW 5.8 mph - N/A   Unknown
2:51 AM 44.1 °F - 30.9 °F 60% 30.36 in - Calm Calm - N/A   Unknown
3:51 AM 41.0 °F - 30.9 °F 67% 30.38 in - Calm Calm - N/A   Unknown
4:51 AM 41.0 °F - 30.9 °F 67% 30.38 in - Calm Calm - N/A   Unknown
5:51 AM 39.9 °F - 30.9 °F 70% 30.39 in - Calm Calm - N/A   Unknown
6:51 AM 41.0 °F - 32.0 °F 70% 30.39 in - Calm Calm - N/A   Unknown
7:51 AM 46.0 °F 43.9 °F 33.1 °F 61% 30.42 in - Variable 4.6 mph - N/A   Unknown
8:51 AM 50.0 °F - 33.1 °F 52% 30.44 in - Variable 3.5 mph - N/A   Unknown
9:51 AM 53.1 °F - 28.9 °F 40% 30.43 in - SSW 5.8 mph - N/A   Unknown
10:51 AM 54.0 °F - 28.9 °F 38% 30.43 in - Variable 4.6 mph - N/A   Unknown
11:51 AM 55.9 °F - 28.9 °F 36% 30.42 in - Variable 4.6 mph - N/A   Unknown
12:51 PM 48.9 °F - 35.1 °F 59% 30.41 in - ESE 8.1 mph - N/A   Unknown
1:51 PM 48.9 °F - 34.0 °F 56% 30.41 in - ESE 8.1 mph - N/A   Unknown
2:51 PM 50.0 °F - 34.0 °F 54% 30.41 in - ESE 8.1 mph - N/A   Unknown
3:51 PM 50.0 °F - 33.1 °F 52% 30.41 in - ESE 9.2 mph - N/A   Unknown
4:51 PM 51.1 °F - 33.1 °F 50% 30.40 in - ESE 10.4 mph - N/A   Unknown
5:51 PM 50.0 °F - 34.0 °F 54% 30.40 in - ESE 5.8 mph - N/A   Unknown
6:51 PM 52.0 °F - 34.0 °F 50% 30.39 in - ESE 4.6 mph - N/A   Unknown
7:51 PM 54.0 °F - 33.1 °F 45% 30.36 in - SE 3.5 mph - N/A   Unknown
8:51 PM 48.0 °F - 36.0 °F 63% 30.36 in - Calm Calm - N/A   Unknown
9:51 PM 48.9 °F - 34.0 °F 56% 30.35 in - Calm Calm - N/A   Unknown
10:51 PM 46.0 °F - 32.0 °F 58% 30.35 in - Calm Calm - N/A   Unknown
11:51 PM 44.1 °F 40.1 °F 30.9 °F 60% 30.36 in - WSW 6.9 mph - N/A   Unknown